Regional Weather Roundup
Issued by NWS Pendleton, OR

Home | Current Version | Previous Version | Text Only | Print | Product List | Glossary On
Versions: 1 2 3 4 5 6 7 8 9 10 11 12 13 14 15 16 17 18 19 20 21 22 23 24 25 26 27 28 29 30 31 32 33 34 35 36 37 38 39 40 41 42 43 44 45 46 47 48 49 50
000
ASUS46 KPDT 241725
RWRPDT
PENDLETON REGIONAL WEATHER ROUNDUP
NATIONAL WEATHER SERVICE PENDLETON OREGON
1000 AM PDT THU APR 24 2014

NOTE: FAIR INDICATES FEW OR NO CLOUDS BELOW 12,000 FEET WITH NO
SIGNIFICANT WEATHER AND/OR OBSTRUCTIONS TO VISIBILITY.

# INDICATES UNOFFICIAL STATION AND DATA

WAZ520-241810-
EAST SLOPES OF WASHINGTON CASCADES

CITY            SKY/WX      TMP DP  RH  WIND    PRES   REMARKS
#CLE ELUM HS    N/A         41  40  96  NW1     29.70R
#CLE ELUM 2NW   N/A         42  40  93  SW2     N/A
#CLE ELUM LAKE  N/A         42  40  93  CALM    29.74R
#CLIFFDEL 2NW   N/A         40  39  96  E3      N/A
#GLENWOOD       N/A         47  46  96  S5      29.78R
#MANASTASH CYN  N/A         44  42  93  CALM    29.71R
#NELSON         N/A         41  40  96  CALM    29.78R
#NELSON 3SW     N/A         39  38  96  CALM    29.97R
#NILE           N/A         44  41  89  W1      29.05F
#RONALD 2NW     N/A         41  40  96  SE1     29.61R
#TEANAWAY 4NE   N/A         43  43  100 SW2     N/A
#TROUT LAKE HS  N/A         50  45  83  CALM    N/A
#TROUT LAKE 1NE N/A         45  43  93  CALM    29.79R
$$

WAZ521-241810-
SIMCOE HIGHLANDS

CITY            SKY/WX      TMP DP  RH  WIND    PRES   REMARKS
#BICKLETON HS   N/A         43  38  82  W10     29.79
#CENTERVILLE 1SWN/A         47  41  79  W12     29.78R WCI 42
#GOLDENDALE 1NE N/A         48  43  83  SW3     N/A
#GOLDENDALE 1S  N/A         47  43  86  W10     29.78S
#GOODNOE HILLS  N/A         52  44  74  W17     29.75R
#LYLE 6NE       N/A         47  43  86  SW8     29.78R
$$

WAZ026-241810-
KITTITAS VALLEY

CITY            SKY/WX      TMP DP  RH  WIND    PRES   REMARKS
ELLENSBURG AP   LGT RAIN    52  44  74  NW5     29.71S
#ELLENSBURG CWU N/A         48  45  89  N5      29.67S
#ELLENSBURG 3NE N/A         47  45  93  W1      29.73F
#ELLENSBURG     N/A         52  48  86  W3      N/A
#ELLENSBURG 1E  N/A         47  42  83  CALM    N/A
#KITTITAS 3S    N/A         47  44  89  W2      29.71R
#THORP 6N       N/A         43  41  93  NW7     29.76R
$$

WAZ027-241810-
YAKIMA VALLEY

CITY            SKY/WX      TMP DP  RH  WIND    PRES   REMARKS
YAKIMA AIRPORT  CLOUDY      52  42  69  S16     29.73S
YAKIMA-VAGABOND CLOUDY      50  42  74  S18G25  29.74R
#COWICHE 1N     N/A         49  43  80  SE1     29.90R
#DONALD 2NE     N/A         55  44  66  E3      30.09S
#GRANDVIEW      N/A         55  40  57  SW3     29.80R
#MABTON         N/A         55  43  64  SW12    29.77R
#MOXEE 2E       N/A         52  38  59  S8      29.70R
#NACHES 2SW     N/A         49  45  86  CALM    29.70S
#OUTLOOK DOT    N/A         56  44  64  W7      N/A
#SELAH 8E       N/A         48  41  77  S15G28  N/A    WCI 42
#TERRACE HTS    N/A         49  43  80  S1      29.71S
#TOPPENISH      N/A         52  41  66  W2      29.68R
#WAPATO 4NE     N/A         55  44  66  E3      30.09S
#WEST VALLEY    N/A         51  42  71  S2      29.75S
#W YAKIMA       N/A         52  42  69  W1      29.75R
#WHITE SWAN 5E  N/A         51  45  80  NE5     29.74R
#WILEY CITY 3W  N/A         50  42  74  S7      29.73R
$$

WAZ028-241810-
LOWER COLUMBIA BASIN...WASHINGTON

CITY            SKY/WX      TMP DP  RH  WIND    PRES   REMARKS
HANFORD         CLOUDY      56  42  59  SW22G32 29.72R
PASCO           MOCLDY      59  45  60  SW21G32 29.78R
PROSSER AWOS    N/A         55  43  64  SW12    29.81R
RICHLAND AWOS   PTCLDY      59  46  62  SW17G24 29.78R
#BASIN CITY 5SW N/A         56  48  74  S1      29.78R
#BENTON CITY    N/A         57  47  69  SW16G26 29.68R
#CONNELL 5N     N/A         53  48  83  SW9     29.75R
#CONNELL 5NW    N/A         53  48  83  S13     29.72R
#ELTOPIA        N/A         59  50  72  SW10    29.75R
#ELTOPIA 6NW    N/A         55  48  77  S12     28.75R
#KENNEWICK 3S   N/A         57  47  69  SW8     29.78R
#PASCO-BROADMOORN/A         59  46  62  S9      29.67R
#PATERSON       N/A         57  48  72  W5      29.78R
#PROSSER        N/A         56  44  64  W7      29.78R
#SAGEMOOR 2W    N/A         57  50  77  SW15    29.63R
#TOUCHET 2S     N/A         59  50  72  S6      29.77R
#WEST PASCO     N/A         58  47  67  SW7     29.73R
$$

WAZ029-241810-
FOOTHILLS OF THE BLUES...WASHINGTON

CITY            SKY/WX      TMP DP  RH  WIND    PRES   REMARKS
WALLA WALLA AP  PTCLDY      57  44  62  S16     29.80R
#COLLEGE PLACE  N/A         56  44  64  SE7     29.81R
#LOWDEN 2SE     N/A         58  47  67  S10     29.76R
#PLEASANT VIEW 1N/A         50  46  86  S14     29.82R
#PRESCOTT       N/A         54  49  83  CALM    29.79R
#SUDBURY        N/A         61  N/A N/A E6      N/A
#WHITMAN COLLEGEN/A         57  46  67  S3      29.85R
#WAITSBURG 8N   N/A         53  39  59  S16     29.65S
#WALLA WALLA 5E N/A         56  43  62  SE6     N/A
#WALLA WALLA U  N/A         55  46  72  CALM    29.79S
#WHITMAN MISSIONN/A         57  47  69  SW3     29.79R
$$

WAZ030-241810-
BLUE MOUNTAINS...WASHINGTON

CITY            SKY/WX      TMP DP  RH  WIND    PRES   REMARKS
$$

ORZ009-041-WAZ024-241810-
COLUMBIA RIVER GORGE

CITY            SKY/WX      TMP DP  RH  WIND    PRES   REMARKS
HOOD RIVER AP   CLOUDY      52  46  80  S3      29.82R
THE DALLES AP   CLOUDY      53  48  83  CALM    29.81R
#ARLINGTON AIRPON/A         54  47  77  SW14    N/A
#ARLINGTON HS   N/A         57  46  67  CALM    29.72R
#CELILO DOT     N/A         54  43  66  SW2     N/A
#MOSIER 1S      N/A         50  40  68  SW12    29.88R
#MURDOCK        N/A         54  47  77  NW9     29.85R
#RUFUS DOT      N/A         55  41  59  N2      N/A

$$

ORZ510-241810-
NORTH CENTRAL OREGON

CITY            SKY/WX      TMP DP  RH  WIND    PRES   REMARKS
#CHENOWITH 1W   N/A         45  45  100 W15     N/A    WCI 38
#COW CYN RST AREN/A         46  24  42  SW10    N/A
#GRASS VALLEY   N/A         44  41  89  SW5     N/A
#GRASS VALLEY 1SN/A         47  42  83  W15G25  29.84R WCI 41
#KENT DOT       N/A         48  33  56  SW17    N/A    WCI 42
#MAUPIN SCHOOL  N/A         51  42  71  W5      29.87R
#MORO SCHOOL    N/A         50  45  83  SW7     29.82R
#SHANIKO 5WSW   N/A         45  32  60  SW17    N/A    WCI 38
#SHANIKO 4NW    N/A         44  37  76  SW18G35 29.79S WCI 36
#TYGH VALLEY 2NEN/A         50  43  77  SW10    29.82R
#WASCO DOT      N/A         52  43  71  W12     N/A
#WASCO 5NE      N/A         50  45  83  W3      29.81R
$$

ORZ511-241810-
CENTRAL OREGON

CITY            SKY/WX      TMP DP  RH  WIND    PRES   REMARKS
BEND AIRPORT    PTCLDY      50  36  58  SW25G31 29.85R
MADRAS AIRPORT  MOCLDY      52  37  56  SW13G26 29.84R
REDMOND AIRPORT MOCLDY      51  36  56  SW15G25 29.82R
#BEND 6E        N/A         49  34  56  CALM    29.80R
#BEND 1SW       N/A         45  38  76  NW3     N/A
#BEND-AWBREY    N/A         47  40  76  NE9     29.84R
#BEND-KIM LN    N/A         48  41  77  SW7     29.81R
#CROOKED RVR RANN/A         48  40  74  NW12    29.82R WCI 43
#CULVER         N/A         52  39  61  S15     29.80R
#LAKE BILLY CHINN/A         48  24  39  SW13    29.90R WCI 43
#POWELL BUTTE 3EN/A         53  37  54  SW14G25 N/A
#POWELL BUTTE   N/A         56  38  51  SW13    29.50R
#PRINEVILLE AIR N/A         58  41  53  S10G29  29.81R
#PRINEVILLE 3N  N/A         52  38  59  SE24    29.77R
#WARM SPRINGS   N/A         53  41  64  E6      29.82R


ORZ509-241810-
EAST SLOPES OF OREGON CASCADES

CITY            SKY/WX      TMP DP  RH  WIND    PRES   REMARKS
#BLUE BOX PASS  N/A         36  -13 11  W1      N/A
#CAMP SHERMAN   N/A         43  40  89  SE2     29.85R
#LA PINE DOT    N/A         42  36  79  SW15G25 N/A    WCI 34
#LA PINE 4NW    N/A         40  36  85  CALM    29.91S
#LAVA BUTTE DOT N/A         39  37  92  S3      N/A
#SISTERS AIRPOR N/A         47  43  86  N7      29.85S
#SISTERS ODOT   N/A         43  N/A N/A CALM    N/A
#SISTERS 3N     N/A         45  37  73  W3      29.92R
#SUNRIVER       N/A         41  39  93  SW3     29.76R
#SUNRIVER AP    N/A         40  38  92  SW7     29.84R
#SUTTLE LK DOT  N/A         36  36  100 SE24    N/A    WCI 24
#TUMALO 3W      N/A         47  38  71  SW3     29.72R
#WANOGA BUTTE D N/A         32  32  100 W10     N/A

$$

ORZ044-241810-
LOWER COLUMBIA BASIN...OREGON

CITY            SKY/WX      TMP DP  RH  WIND    PRES   REMARKS
HERMISTON       CLOUDY      59  47  64  VRB5    29.79R
#BOARDMAN SCHOOLN/A         58  47  67  CALM    29.78R
#BOARDMAN 3W    N/A         64  50  60  W6      29.50S
#BOARDMAN 8SW   N/A         59  47  64  SW16    29.79R
#IONE SCHOOL    N/A         58  43  57  SW21G33 29.78R
#IRRIGON 4NW    N/A         58  48  69  W5      N/A
#UMATILLA SCHOOLN/A         58  50  75  SW7     29.84R
#UMATILLA       N/A         59  46  62  W3      29.77R
$$

ORZ507-241810-
NORTHERN FOOTHILLS OF THE BLUES

CITY            SKY/WX      TMP DP  RH  WIND    PRES   REMARKS
PENDLETON AIRPT MOCLDY      57  45  64  S15     29.79R
#ADAMS 3WNW     N/A         54  47  77  S5      29.80R
#ATHENA         N/A         53  43  69  SE2     29.82R
#HELIX SCHOOL   N/A         53  47  80  SE7     29.80R
#HELIX 3N       N/A         52  46  80  S14     29.78R
#M-F FERNDALE   N/A         56  44  64  SE1     29.80R
#M-F GROVE ELEM N/A         57  43  59  S2      29.80R
#M-FREEWATER 5SEN/A         54  44  69  CALM    29.82R
#PDT AQUATIC CTRN/A         59  46  62  S7      29.78S
#PDT SUNRIDGE   N/A         58  47  67  S7      29.80R
#PENDLETON 7NW  N/A         58  48  69  S13     29.75R
#PILOT ROCK     N/A         58  41  53  S13     29.82R
#TUTUILLA       N/A         56  44  64  S10     29.73R
#UMAPINE 2E     N/A         57  47  69  S7      29.72S
#WESTON SCHOOL  N/A         52  41  66  SW7     29.85R

$$

ORZ508-241810-
SOUTHERN FOOTHILLS OF THE BLUES

CITY            SKY/WX      TMP DP  RH  WIND    PRES   REMARKS
LEXINGTON       PTCLDY      57  43  59  SW21G25 29.82R
#AJAX           N/A         50  36  58  N14     29.83R
#CONDON SCHOOL  N/A         51  42  71  SW18G26 29.78R
#CONDON 5W      N/A         47  37  68  SW22G32 29.78R WCI 39
#FOSSIL SCHOOL  N/A         54  38  55  SW10    29.79S
#HEPPNER 4NE    N/A         52  40  63  SW14G26 29.79R
#LEXINGTON 2SE  N/A         59  42  53  SW15G25 29.78R
#MIKKALO        N/A         53  43  69  W12     29.80R
#OLEX 4N        N/A         55  45  69  SW17G25 29.79R
#RUGGS 5NE      N/A         55  38  53  S15G25  30.04S
#RUGGS 2SW      N/A         55  39  55  W16G25  29.84S

$$

ORZ502-503-241810-
BLUE MOUNTAINS

CITY            SKY/WX      TMP DP  RH  WIND    PRES   REMARKS
MEACHAM         MOCLDY      46  42  86  S3      29.83R
#BATTLE MTN DOT N/A         43  42  96  SE7     N/A
#HARDMAN 10S    N/A         43  40  89  S7      29.89R
#HEPPNER 15SE   N/A         46  41  83  E5      29.72R
#LADD CYN SMT   N/A         44  40  86  SE12    N/A    WCI 38
#LADD CREEK ODOTN/A         46  44  93  S6      N/A
#LONG CREEK HS  N/A         49  42  77  SW18G30 29.79R WCI 43
#N POWDER DOT   N/A         48  45  89  SE14    N/A    WCI 42
#TOLLGATE 9W    N/A         40  40  100 SE8     N/A
#TROY SCHOOL    N/A         47  44  89  CALM    29.72S
#UKIAH          N/A         50  43  77  SE6     29.86S
#WESTON 4E      N/A         45  41  86  S8      29.79R
$$

ORZ505-241810-
JOHN DAY BASIN

CITY            SKY/WX      TMP DP  RH  WIND    PRES   REMARKS
JOHN DAY        PTCLDY      55  39  55  SW14    29.86F
#JOHN DAY KJDY  N/A         57  51  80  S6      29.83S
#DAYVILLE SCHOOLN/A         56  37  49  S9      29.83S
#MONUMENT HS    N/A         55  45  69  NE5     29.79F
#MT. VERNON 5SE N/A         49  39  68  SE7     29.82F
$$

ORZ506-241810-
OCHOCO AND JOHN DAY HIGHLANDS

CITY            SKY/WX      TMP DP  RH  WIND    PRES   REMARKS
#ANTONE         N/A         32  N/A N/A CALM    N/A
#BUCK CREEK DOT N/A         52  42  69  S15     N/A
#HORSE RIDGE DO N/A         48  35  60  S15     N/A    WCI 42
#KEYES SMT DOT  N/A         47  35  63  S7      N/A
#PAULINA SCHOOL N/A         49  36  61  SW16    29.86S WCI 43
#PINE MTN OBS   N/A         35  34  96  S23G37  N/A    WCI 23
#PRAIRIE CITY   N/A         48  40  74  E1      29.89F
#SENECA 9NW     N/A         44  39  82  W1      29.86F
$$

ORZ049-241810-
GRANDE RONDE VALLEY

CITY            SKY/WX      TMP DP  RH  WIND    PRES   REMARKS
LA GRANDE       PTCLDY      48  39  71  SE9     29.85S
#COVE           N/A         47  45  93  E2      29.79F
#COVE SCHOOL    N/A         47  43  86  SE2     29.85S
#COVE 6NW       N/A         45  43  93  CALM    29.90F
#ELGIN 3N       N/A         48  44  86  SW7     29.59S
#ELGIN 1E       N/A         48  45  89  CALM    N/A
#IMBLER SCHOOL  N/A         42  38  86  CALM    29.83S
#ISLAND CITY 4N N/A         46  44  93  S1      29.83R
#LADD CYN DOT   N/A         48  41  77  S8      N/A
#LA GRANDE ELEM N/A         47  43  86  W1      29.85S
#UNION 1S       N/A         49  43  80  SE6     29.78S
$$

ORZ050-241810-
WALLOWA COUNTY

CITY            SKY/WX      TMP DP  RH  WIND    PRES   REMARKS
JOSEPH AIRPORT  RAIN        41  39  93  CALM    29.88R
#ENTERPRISE HS  N/A         43  41  93  CALM    29.89R
#IMNAHA SCHOOL  N/A         51  38  61  S10     29.78R
#JOSEPH 3N      N/A         42  40  93  CALM    29.90R
#LOSTINE        N/A         41  39  93  CALM    29.70R
#MT HOWARD 8000 N/A         29  27  92  W8      29.83R
#PROMISE 1S     N/A         41  38  89  E2      29.98S
#SHEEP RDG 7000 N/A         31  30  96  CALM    29.92R
#WALLOWA SCHOOL N/A         43  42  96  CALM    30.82R



$$



USA.gov is the U.S. government's official web portal to all federal, state and local government web resources and services.